This is the latest recevied weather packets stored in our database for station/object K4DNM. If no packets are shown the sender has not sent any weather packets the latest 10 day(s).
| Time | Temp. | Humidity | Pressure | Rain* | Wind** | Luminosity | Snow |
|---|---|---|---|---|---|---|---|
| 1778202142 | 11.67° C | 97% | 1010.4 hPa | 5.59 mm | - | 0 W/m² | - |
| 1778201782 | 11.67° C | 97% | 1010.6 hPa | 5.33 mm | - | 0 W/m² | - |
| 1778201540 | 11.67° C | 97% | 1010.8 hPa | 4.32 mm | - | 0 W/m² | - |
| 1778201179 | 11.67° C | 96% | 1010.8 hPa | 3.3 mm | - | 0 W/m² | - |
| 1778200880 | 11.67° C | 96% | 1010.8 hPa | 2.79 mm | - | 0 W/m² | - |
| 1778200580 | 12.22° C | 95% | 1010.2 hPa | 2.03 mm | - | 0 W/m² | - |
| 1778200264 | 12.22° C | 95% | 1010 hPa | 0 mm | - | 0 W/m² | - |
| 1778199965 | 12.22° C | 94% | 1009.6 hPa | 0 mm | - | 0 W/m² | - |
| 1778199680 | 12.22° C | 94% | 1009.3 hPa | 0 mm | - | 0 W/m² | - |
| 1778199369 | 12.22° C | 95% | 1009.3 hPa | 0 mm | - | 0 W/m² | - |
| 1778199067 | 12.22° C | 95% | 1009.3 hPa | 0 mm | - | 0 W/m² | - |
| 1778198769 | 12.22° C | 95% | 1009.3 hPa | 0 mm | - | 0 W/m² | - |
| 1778198467 | 12.22° C | 95% | 1009.2 hPa | 0 mm | - | 2 W/m² | - |
| 1778198228 | 12.22° C | 96% | 1009.3 hPa | 0 mm | - | 2 W/m² | - |
| 1778197867 | 12.22° C | 96% | 1009.2 hPa | 0 mm | - | 3 W/m² | - |
| 1778197570 | 12.22° C | 96% | 1009.3 hPa | 0 mm | - | 5 W/m² | - |
| 1778197264 | 12.22° C | 96% | 1009.4 hPa | 0 mm | - | 5 W/m² | - |
| 1778197026 | 12.22° C | 96% | 1009.4 hPa | 0 mm | - | 8 W/m² | - |
| 1778196650 | 12.22° C | 96% | 1009.4 hPa | 0 mm | - | 8 W/m² | - |
| 1778196352 | 12.22° C | 96% | 1009.5 hPa | 0 mm | - | 9 W/m² | - |
| 1778196051 | 12.22° C | 96% | 1009.4 hPa | 0 mm | - | 9 W/m² | - |
| 1778195753 | 12.22° C | 96% | 1009.3 hPa | 0 mm | - | 8 W/m² | - |
| 1778195452 | 12.22° C | 97% | 1009.1 hPa | 0 mm | - | 17 W/m² | - |
| 1778195153 | 12.22° C | 97% | 1009 hPa | 0 mm | - | 24 W/m² | - |
| 1778194864 | 12.22° C | 97% | 1009 hPa | 0 mm | - | 31 W/m² | - |
* Rain latest hour (hover to see other rain measurements)
** Current wind speed in m/s (hover to see current wind gust speed)